Content
SEND FEEDBACK

Daily
Averages
Monthly
Summary
United States of America

NEW YORK - CENTRAL PARK, NEW YORK


Home > North America > United States > New York
Elevation: 14 feet     Latitude: 40 47N     Longitude: 073 58W

WEATHER
 
SELECT A DAY
Number of Records: 148,305;   Date Range: 11/1/95 - 9/16/14
 
SHARE

PRINT THIS DATA

[ ← Previous Day ]
WEATHER ALMANAC - MAY 19, 2013
[ Next Day → ]
[ °C ]   °F
Weather ElementAverageHighLow
Temperature57 °F59 °F (1:26 am)55 °F (4:51 am)
Dewpoint55 °F57 °F (9:51 pm)50 °F (1:26 am)
Humidity92.9 %97 % (8:32 am)72 % (1:26 am)
Barometer30.28 in30.35 in (9:20 am)30.18 in (11:51 pm)
Wind Speed4.9 mph9.2 mph (4:02 pm)
Weather ElementAverage
Visibility3.1 mi
Wind DirectionNNE (32.6 °)

Weather ElementTotal
Precipitation1.01 in
Heating Degree Days8 (Base 65)
Growing Degree Days7 (Base 50)
Averaged from 57 records on May 19, 2013
WEATHER CONDITIONS BREAKOUT
WIND DIRECTION BREAKOUT
WEATHER BY HOUR - MAY 19, 2013
[ °C ]   °F
Local TimeTemperatureDewpointHumidityBarometerVisibilityWind DirectionWind SpeedGust SpeedPrecipitationEventsConditions
1:26 AM59.0 °F50.0 °F72 %30.32 in10.0 miVariable3.5 mphOvercast
1:51 AM57.9 °F51.1 °F78 %30.29 in10.0 miVariable3.5 mphOvercast
2:34 AM57.9 °F52.0 °F81 %30.31 in10.0 miVariable6.9 mphOvercast
2:51 AM57.9 °F52.0 °F81 %30.29 in10.0 miVariable6.9 mphOvercast
3:46 AM55.4 °F53.6 °F94 %30.31 in5.0 miVariable3.5 mph0.02 inRainLight Rain
3:51 AM55.9 °F54.0 °F93 %30.29 in5.0 miVariable6.9 mph0.02 inRainLight Rain
4:14 AM55.9 °F54.0 °F93 %30.31 in9.0 miCalm0.01 inOvercast
4:51 AM55.0 °F53.1 °F93 %30.28 in5.0 miNorth0.02 inRainLight Rain
5:51 AM55.9 °F53.1 °F90 %30.28 in7.0 miCalm0.02 inOvercast
6:42 AM55.9 °F53.1 °F90 %30.32 in7.0 miCalmOvercast
6:51 AM55.0 °F53.1 °F93 %30.30 in6.0 miVariable3.5 mphOvercast
7:17 AM55.9 °F53.1 °F90 %30.33 in3.0 miCalm0.00 inRainLight Rain
7:24 AM55.9 °F54.0 °F93 %30.33 in2.0 miSSE (160°)4.6 mph0.01 inRainLight Rain
7:35 AM55.9 °F54.0 °F93 %30.33 in1.8 miVariable4.6 mph0.01 inRainLight Rain
7:42 AM55.9 °F54.0 °F93 %30.33 in2.0 miVariable3.5 mph0.02 inRainLight Rain
7:51 AM55.9 °F54.0 °F93 %30.31 in2.0 miVariable4.6 mph0.03 inRainLight Rain
8:11 AM55.9 °F54.0 °F93 %30.33 in1.5 miVariable4.6 mph0.01 inRainLight Rain
8:32 AM55.9 °F55.0 °F97 %30.34 in2.0 miNorth0.03 inRainLight Rain
8:51 AM55.9 °F55.0 °F97 %30.31 in3.0 miNorth0.04 inOvercast
9:20 AM55.9 °F55.0 °F97 %30.35 in2.5 miNorth0.00 inRainLight Rain
9:30 AM57.0 °F55.0 °F93 %30.35 in3.0 miVariable4.6 mph0.00 inRainLight Rain
9:36 AM57.0 °F55.0 °F93 %30.34 in1.8 miCalm0.01 inRainLight Rain
9:51 AM57.0 °F55.0 °F93 %30.32 in1.5 miVariable3.5 mph0.02 inRainLight Rain
10:51 AM57.0 °F55.0 °F93 %30.32 in2.0 miVariable4.6 mph0.07 inRainLight Rain
11:06 AM57.0 °F55.0 °F93 %30.35 in1.8 miSSE (150°)8.1 mph0.01 inRainLight Rain
11:33 AM57.0 °F55.0 °F93 %30.34 in2.0 miSouth (170°)8.1 mph0.04 inRainLight Rain
11:51 AM57.0 °F55.0 °F93 %30.31 in2.0 miVariable5.8 mph0.06 inRainLight Rain
12:41 PM57.9 °F55.9 °F93 %30.32 in1.2 miNorth0.03 inRainLight Rain
12:51 PM57.9 °F55.9 °F93 %30.30 in1.2 miNorth0.05 inRainLight Rain
1:51 PM57.9 °F55.9 °F93 %30.27 in1.0 miVariable5.8 mph0.09 inRainRain
2:44 PM57.0 °F55.9 °F96 %30.29 in2.5 miSE (140°)8.1 mph0.07 inRainLight Rain
2:51 PM57.9 °F55.9 °F93 %30.26 in2.0 miSE (130°)8.1 mph0.07 inOvercast
2:58 PM57.0 °F55.9 °F96 %30.28 in1.8 miCalm0.00 inRainLight Rain
3:08 PM57.9 °F55.9 °F93 %30.28 in2.0 miVariable5.8 mph0.01 inRainLight Rain
3:51 PM57.9 °F55.9 °F93 %30.24 in2.0 miVariable4.6 mph0.03 inRainLight Rain
4:02 PM57.9 °F55.9 °F93 %30.26 in1.8 miSE (140°)9.2 mph0.01 inRainLight Rain
4:09 PM57.0 °F55.9 °F96 %30.26 in2.0 miSSE (150°)9.2 mph0.01 inRainLight Rain
4:27 PM57.0 °F55.9 °F96 %30.26 in1.5 miVariable5.8 mph0.02 inRainLight Rain
4:37 PM57.0 °F55.9 °F96 %30.26 in2.5 miNorth0.03 inOvercast
4:51 PM57.0 °F55.9 °F96 %30.23 in2.0 miESE (120°)9.2 mph0.03 inOvercast
5:24 PM57.0 °F55.9 °F96 %30.25 in3.0 miVariable5.8 mph0.01 inOvercast
5:51 PM57.0 °F55.9 °F96 %30.22 in3.0 miVariable3.5 mph0.02 inOvercast
6:04 PM57.0 °F55.9 °F96 %30.24 in2.0 miVariable5.8 mphOvercast
6:32 PM57.9 °F55.9 °F93 %30.24 in1.5 miEast (100°)8.1 mph0.02 inRainLight Rain
6:48 PM57.2 °F55.4 °F94 %30.24 in2.0 miVariable4.6 mph0.03 inRainLight Rain
6:51 PM57.0 °F55.9 °F96 %30.22 in2.5 miVariable4.6 mph0.03 inOvercast
7:46 PM57.2 °F55.4 °F94 %30.24 in1.8 miVariable4.6 mphOvercast
7:51 PM57.9 °F55.9 °F93 %30.21 in1.8 miVariable4.6 mphOvercast
8:00 PM57.9 °F55.9 °F93 %30.23 in2.0 miSSE (150°)6.9 mphOvercast
8:29 PM57.9 °F55.9 °F93 %30.22 in3.0 miVariable4.6 mphOvercast
8:51 PM57.9 °F55.9 °F93 %30.19 in3.0 miSSE (160°)5.8 mphOvercast
9:13 PM57.9 °F55.9 °F93 %30.21 in2.5 miVariable5.8 mphOvercast
9:21 PM57.9 °F55.9 °F93 %30.21 in2.5 miVariable5.8 mphOvercast
9:51 PM57.9 °F57.0 °F97 %30.19 in2.0 miVariable3.5 mphOvercast
10:20 PM57.9 °F57.0 °F97 %30.22 in1.8 miSE (140°)4.6 mphOvercast
10:51 PM57.9 °F57.0 °F97 %30.20 in1.5 miVariable3.5 mphOvercast
11:51 PM57.9 °F57.0 °F97 %30.18 in1.2 miSSE (150°)3.5 mphOvercast
Hourly data recorded from KNYC, located miles away from New York - Central Park, New York







STORIES FROM OUR PARTNERS